Weather History for KRSN - August, 2013

Change the Weather History Date:

Wednesday, August 7, 2013

  Actual Average (KMLU) Record (KMLU)
Temperature  
Mean Temperature 86 °F 83 °F  
Max Temperature 94 °F 95 °F 105 °F (1947)
Min Temperature 77 °F 72 °F 63 °F (2004)
Degree Days  
Heating Degree Days 0 0  
Month to date heating degree days 0  
Since 1 June heating degree days 0  
Since 1 July heating degree days 0  
Cooling Degree Days 20 18  
Month to date cooling degree days 126  
Year to date cooling degree days 1586  
Since 1 June cooling degree days 1151  
Growing Degree Days 36 (Base 50)    
Moisture  
Dew Point 73 °F    
Average Humidity 72    
Maximum Humidity 100    
Minimum Humidity 38    
Precipitation  
Precipitation 0.00 in 0.10 in 2.34 in (1985)
Month to date precipitation 0.68  
Year to date precipitation 32.98  
Snow  
Snow 0.00 in - - ()
Month to date snowfall  
Since 1 June snowfall  
Since 1 July snowfall  
Snow Depth -    
Sea Level Pressure  
Sea Level Pressure 29.94 in    
Wind  
Wind Speed 5 mph (SSW)    
Max Wind Speed 8 mph    
Max Gust Speed -    
Visibility 10 miles    
Events      
T = Trace of Precipitation, MM = Missing Value Source: NWS Daily Summary

Daily Weather History Graph

Daily Weather History Graph

Search for Another Location

Airport or City:

Trip Planner

Search our weather history database for the weather conditions in past years. The results will help you decide how hot, cold, wet, or windy it might be!

Date:

Astronomy

Aug. 07, 2013 Rise Set
Actual Time 6:28 AM CDT 8:02 PM CDT
Civil Twilight 6:02 AM CDT 8:29 PM CDT
Nautical Twilight 5:30 AM CDT 9:00 PM CDT
Astronomical Twilight 4:57 AM CDT 9:33 PM CDT
Moon 7:11 AM CDT (8/7) 8:18 PM CDT (8/7)
Length of Visible Light 14h 26m
Length of Day
13h 33m
New Moon, 1% of the Moon is Illuminated
Aug 7
New Moon
Aug 14
First Quarter
Aug 20
Full
Aug 28
Last Quarter
Sep 5
New

Hourly Weather History & Observations

Time (CDT) Temp. Heat Index Dew Point Humidity Pressure Visibility Wind Dir Wind Speed Gust Speed Precip Events Conditions
12:15 AM 81.0 °F 85.2 °F 71.8 °F 74% 29.95 in 10.0 mi South 5.8 mph - N/A   Clear
12:35 AM 80.1 °F 84.1 °F 72.5 °F 78% 29.95 in 10.0 mi South 4.6 mph - N/A   Clear
12:55 AM 80.2 °F 84.3 °F 72.5 °F 77% 29.95 in 10.0 mi South 4.6 mph - N/A   Clear
1:15 AM 80.2 °F 84.3 °F 72.5 °F 77% 29.95 in 10.0 mi SSW 6.9 mph - N/A   Clear
1:35 AM 80.6 °F 84.9 °F 72.5 °F 76% 29.95 in 10.0 mi SSW 5.8 mph - N/A   Clear
1:55 AM 79.7 °F - 73.0 °F 80% 29.96 in 10.0 mi Calm Calm - N/A   Clear
2:15 AM 79.2 °F - 73.8 °F 83% 29.95 in 10.0 mi SSW 4.6 mph - N/A   Clear
2:35 AM 78.4 °F - 74.5 °F 88% 29.95 in 10.0 mi South 5.8 mph - N/A   Clear
2:55 AM 78.1 °F - 75.2 °F 91% 29.95 in 10.0 mi South 5.8 mph - N/A   Clear
3:15 AM 77.9 °F - 75.6 °F 92% 29.95 in 10.0 mi South 5.8 mph - N/A   Clear
3:35 AM 78.1 °F - 76.3 °F 94% 29.94 in 10.0 mi South 6.9 mph - N/A   Clear
3:55 AM 78.3 °F - 76.1 °F 93% 29.93 in 10.0 mi SSW 5.8 mph - N/A   Clear
4:15 AM 78.1 °F - 76.8 °F 96% 29.93 in 10.0 mi South 6.9 mph - N/A   Clear
4:35 AM 77.9 °F - 77.2 °F 98% 29.93 in 10.0 mi SSW 5.8 mph - N/A   Clear
4:55 AM 77.5 °F - 77.5 °F 100% 29.93 in 10.0 mi SSW 5.8 mph - N/A   Clear
5:15 AM 77.5 °F - 77.5 °F 100% 29.93 in 10.0 mi SSW 5.8 mph - N/A   Clear
5:35 AM 77.4 °F - 77.4 °F 100% 29.93 in 10.0 mi SSW 6.9 mph - N/A   Clear
5:55 AM 77.4 °F - 77.4 °F 100% 29.93 in 10.0 mi SSW 6.9 mph - N/A   Clear
6:15 AM 77.5 °F - 77.5 °F 100% 29.93 in 10.0 mi SSW 6.9 mph - N/A   Clear
6:35 AM 77.4 °F - 77.4 °F 100% 29.94 in 10.0 mi SSW 5.8 mph - N/A   Clear
6:55 AM 77.4 °F - 77.4 °F 100% 29.95 in 10.0 mi SSW 4.6 mph - N/A   Clear
7:15 AM 77.4 °F - 77.4 °F 100% 29.96 in 10.0 mi SSW 5.8 mph - N/A   Clear
7:35 AM 77.9 °F - 77.9 °F 100% 29.97 in 7.0 mi SW 4.6 mph - N/A   Clear
7:55 AM 78.4 °F - 78.3 °F 99% 29.97 in 10.0 mi SW 3.5 mph - N/A   Clear
8:15 AM 79.7 °F - 77.2 °F 92% 29.97 in 10.0 mi SW 5.8 mph - N/A   Clear
8:35 AM 80.6 °F 86.4 °F 75.6 °F 85% 29.97 in 10.0 mi WSW 6.9 mph - N/A   Clear
8:55 AM 81.5 °F 87.4 °F 74.3 °F 79% 29.98 in 10.0 mi WSW 4.6 mph - N/A   Clear
9:15 AM 82.4 °F 88.4 °F 73.6 °F 75% 29.98 in 10.0 mi West 6.9 mph - N/A   Clear
9:35 AM 83.3 °F 89.0 °F 72.7 °F 70% 30.00 in 10.0 mi West 4.6 mph - N/A   Clear
9:55 AM 84.6 °F 90.7 °F 72.3 °F 67% 30.00 in 10.0 mi WSW 8.1 mph - N/A   Clear
10:15 AM 85.3 °F 90.8 °F 71.2 °F 63% 30.00 in 10.0 mi SW 6.9 mph - N/A   Clear
10:35 AM 86.0 °F 90.7 °F 70.3 °F 59% 30.00 in 10.0 mi WSW 8.1 mph - N/A   Clear
10:55 AM 86.9 °F 91.7 °F 70.2 °F 57% 30.00 in 10.0 mi WSW 6.9 mph - N/A   Clear
11:15 AM 87.8 °F 91.4 °F 68.2 °F 52% 30.00 in 10.0 mi West 5.8 mph - N/A   Clear
11:35 AM 88.7 °F 92.6 °F 68.7 °F 51% 29.99 in 10.0 mi SW 5.8 mph - N/A   Clear
11:55 AM 89.6 °F 93.4 °F 68.4 °F 49% 29.99 in 10.0 mi Calm Calm - N/A   Clear
12:15 PM 90.0 °F 94.5 °F 69.1 °F 50% 29.99 in 10.0 mi SW 6.9 mph - N/A   Clear
12:35 PM 90.7 °F 95.0 °F 68.5 °F 48% 29.98 in 10.0 mi SSW 3.5 mph - N/A   Clear
12:55 PM 91.2 °F 96.0 °F 68.9 °F 48% 29.97 in 10.0 mi Calm Calm - N/A   Clear
1:15 PM 91.2 °F 95.0 °F 67.8 °F 46% 29.96 in 10.0 mi SW 8.1 mph - N/A   Clear
1:35 PM 91.8 °F 95.5 °F 67.5 °F 45% 29.96 in 10.0 mi SSW 4.6 mph - N/A   Clear
1:55 PM 92.3 °F 97.0 °F 68.5 °F 46% 29.96 in 10.0 mi Calm Calm - N/A   Clear
2:15 PM 93.2 °F 98.3 °F 68.7 °F 45% 29.96 in 10.0 mi SSW 5.8 mph - N/A   Clear
2:35 PM 93.0 °F 97.4 °F 68.0 °F 44% 29.95 in 10.0 mi South 4.6 mph - N/A   Clear
2:55 PM 92.8 °F 97.6 °F 68.4 °F 45% 29.95 in 10.0 mi WSW 5.8 mph - N/A   Clear
3:15 PM 93.2 °F 97.2 °F 67.6 °F 43% 29.94 in 7.0 mi SW 3.5 mph - N/A   Clear
3:35 PM 93.9 °F 96.5 °F 65.8 °F 39% 29.94 in 10.0 mi South 8.1 mph - N/A   Clear
3:55 PM 93.9 °F 96.1 °F 64.6 °F 38% 29.93 in 10.0 mi SW 6.9 mph - N/A   Clear
4:15 PM 93.7 °F 97.7 °F 67.6 °F 42% 29.93 in 10.0 mi SSW 4.6 mph - N/A   Clear
4:35 PM 93.4 °F 97.6 °F 67.6 °F 43% 29.93 in 7.0 mi Calm Calm - N/A   Clear
4:55 PM 93.6 °F 98.4 °F 68.9 °F 44% 29.93 in 10.0 mi WSW 4.6 mph - N/A   Clear
5:15 PM 94.1 °F 99.5 °F 69.3 °F 44% 29.91 in 10.0 mi SW 5.8 mph - N/A   Clear
5:35 PM 94.1 °F 98.9 °F 68.7 °F 43% 29.91 in 10.0 mi SW 3.5 mph - N/A   Clear
5:55 PM 93.4 °F 99.2 °F 69.6 °F 46% 29.90 in 10.0 mi SSW 4.6 mph - N/A   Clear
6:15 PM 92.8 °F 98.6 °F 70.2 °F 47% 29.90 in 10.0 mi SW 3.5 mph - N/A   Clear
6:35 PM 92.3 °F 97.6 °F 69.4 °F 47% 29.90 in 10.0 mi Calm Calm - N/A   Clear
6:55 PM 90.3 °F 101.6 °F 75.7 °F 62% 29.90 in 7.0 mi Calm Calm - N/A   Clear
7:15 PM 88.9 °F 100.3 °F 76.1 °F 66% 29.90 in 10.0 mi SSW 3.5 mph - N/A   Clear
7:35 PM 86.7 °F 98.3 °F 77.0 °F 73% 29.90 in 10.0 mi Calm Calm - N/A   Clear
7:55 PM 84.9 °F 95.7 °F 77.4 °F 78% 29.90 in 10.0 mi Calm Calm - N/A   Clear
8:15 PM 81.9 °F 92.2 °F 79.9 °F 94% 29.90 in 7.0 mi Calm Calm - N/A   Clear
8:35 PM 80.4 °F 88.3 °F 79.7 °F 98% 29.90 in 10.0 mi Calm Calm - N/A   Clear
8:55 PM 79.2 °F - 79.2 °F 100% 29.90 in 10.0 mi Calm Calm - N/A   Clear
9:15 PM 80.6 °F 85.9 °F 74.7 °F 82% 29.91 in 10.0 mi South 4.6 mph - N/A   Clear
9:35 PM 79.7 °F - 75.2 °F 86% 29.91 in 10.0 mi South 3.5 mph - N/A   Clear
9:55 PM 79.7 °F - 74.3 °F 83% 29.92 in 10.0 mi Calm Calm - N/A   Clear
10:15 PM 77.9 °F - 76.5 °F 95% 29.93 in 10.0 mi South 4.6 mph - N/A   Clear
10:35 PM 80.1 °F 84.1 °F 72.7 °F 78% 29.93 in 10.0 mi South 5.8 mph - N/A   Clear
10:55 PM 81.5 °F 86.1 °F 72.1 °F 73% 29.93 in 10.0 mi SSE 5.8 mph - N/A   Clear
11:15 PM 81.1 °F 85.6 °F 72.0 °F 74% 29.93 in 10.0 mi SE 4.6 mph - N/A   Clear
11:35 PM 81.1 °F 85.6 °F 72.0 °F 74% 29.93 in 10.0 mi SE 5.8 mph - N/A   Clear
11:55 PM 80.6 °F 84.7 °F 72.1 °F 75% 29.93 in 10.0 mi ESE 3.5 mph - N/A   Clear